Regional Weather Roundup
Issued by NWS Sioux Falls, SD

Home | Current Version | Previous Version | Text Only | Print | Product List | Glossary Off
Versions: 1 2 3 4 5 6 7 8 9 10 11 12 13 14 15 16 17 18 19 20 21 22 23 24 25 26 27 28 29 30 31 32 33 34 35 36 37 38 39 40 41 42 43 44 45 46 47 48 49 50

000
ASUS43 KFSD 310210
RWRFSD

WEATHER ROUNDUP FOR SE SOUTH DAKOTA/SW MINNESOTA/NW IOWA
NATIONAL WEATHER SERVICE SIOUX FALLS SD
900 PM CDT WED JUL 30 2014

NOTE: "FAIR" INDICATES FEW OR NO CLOUDS BELOW 12,000 FEET WITH NO
SIGNIFICANT WEATHER AND OR OBSTRUCTIONS TO VISIBILITY.


SDZ038>040-050-052>070-310300-
SOUTHEAST SOUTH DAKOTA

CITY           SKY/WX    TMP DP  RH WIND       PRES   REMARKS
CHAMBERLAIN    CLOUDY    75  55  50 E6        30.07S
HURON          CLEAR     73  56  54 NE5       30.07S
MADISON        FAIR      68  64  88 E3        30.10S
MITCHELL       CLEAR     74  58  57 S6        30.09R
SIOUX FALLS    CLEAR     69  55  60 CALM      30.10R
WINNER         MOCLDY    80  52  37 SE12      30.07S
YANKTON          N/A    N/A N/A N/A MISG        N/A
$$

MNZ071-072-080-081-089-090-097-098-310300-
SOUTHWEST MINNESOTA

CITY           SKY/WX    TMP DP  RH WIND       PRES   REMARKS
FAIRMONT       CLEAR     66  52  59 NW3       30.08F
JACKSON        CLEAR     63  59  88 CALM      30.10S
LUVERNE        CLEAR     68  59  73 W3        30.10S
MARSHALL       CLEAR     70  57  64 CALM      30.07S
MONTEVIDEO     CLEAR     70  55  60 CALM      30.08S
PIPESTONE      CLEAR     70  59  68 CALM      30.10S
REDWOOD FALLS  CLEAR     72  56  57 W3        30.06F
TRACY          CLEAR     67  60  75 CALM      30.09S
WINDOM         CLEAR     70  59  68 CALM      30.09S
WORTHINGTON    CLEAR     70  54  56 CALM      30.11S
$$

IAZ001>003-012>014-020>022-031-032-NEZ013-014-SDZ071-310300-
NORTHWEST IOWA

CITY           SKY/WX    TMP DP  RH WIND       PRES   REMARKS
CHEROKEE       CLEAR     67  61  82 CALM      30.10S
DENISON        CLEAR     66  63  88 CALM      30.09S
ESTHERVILLE    CLEAR     65  59  81 CALM      30.09F
LE MARS        CLEAR     68  61  77 CALM      30.10S
ORANGE CITY    CLEAR     72  57  60 CALM      30.11S
SHELDON        CLEAR     64  61  88 SW3       30.09S
SIOUX CITY     PTCLDY    70  58  65 E3        30.10S
SPENCER        CLEAR     66  60  81 CALM      30.10S
STORM LAKE     CLEAR     66  61  82 CALM      30.12R
$$

ABBREVIATIONS USED IN REMARKS
   TC - TEMPERATURE IN CELSIUS
  WCI - WIND CHILL INDEX
   HX - HEAT INDEX
  VSB - VISIBILITY




USA.gov is the U.S. government's official web portal to all federal, state and local government web resources and services.